Time,TemperatureF,DewpointF,PressureIn,WindDirection,WindDirectionDegrees,WindSpeedMPH,WindSpeedGustMPH,Humidity,HourlyPrecipIn,Conditions,Clouds,dailyrainin,SoftwareType,DateUTC
2013-06-09 00:01:00,65.5,57.0,29.83,WNW,298,4.0,4.0,73,0.00,,,-99.99,wx200d/1.3,2013-06-09 04:01:00,
2013-06-09 00:02:00,65.5,57.0,29.83,West,263,3.6,4.5,73,0.00,,,-99.99,wx200d/1.3,2013-06-09 04:02:00,
2013-06-09 00:07:00,65.3,57.0,29.83,West,273,4.9,4.9,74,0.00,,,-99.99,wx200d/1.3,2013-06-09 04:07:00,
2013-06-09 00:09:00,65.3,57.0,29.83,West,267,4.9,5.8,75,0.00,,,-99.99,wx200d/1.3,2013-06-09 04:09:00,
2013-06-09 00:14:00,65.1,57.0,29.83,West,277,4.9,5.4,75,0.00,,,-99.99,wx200d/1.3,2013-06-09 04:14:00,
2013-06-09 00:15:00,65.1,57.0,29.83,West,272,4.9,4.9,75,0.00,,,-99.99,wx200d/1.3,2013-06-09 04:15:00,
2013-06-09 00:20:00,65.1,57.0,29.83,NW,324,5.4,5.8,76,0.00,,,-99.99,wx200d/1.3,2013-06-09 04:20:00,
2013-06-09 00:25:00,64.9,57.0,29.83,WSW,239,4.9,5.8,76,0.00,,,-99.99,wx200d/1.3,2013-06-09 04:25:00,
2013-06-09 00:30:00,64.8,57.0,29.83,WSW,254,4.9,6.3,76,0.00,,,-99.99,wx200d/1.3,2013-06-09 04:30:00,
2013-06-09 00:35:00,64.8,57.0,29.83,West,280,5.4,5.4,77,0.00,,,-99.99,wx200d/1.3,2013-06-09 04:35:00,
2013-06-09 00:40:00,64.6,57.0,29.83,West,267,3.6,4.9,77,0.00,,,-99.99,wx200d/1.3,2013-06-09 04:40:00,
2013-06-09 00:45:00,64.4,57.0,29.83,West,266,4.5,6.3,77,0.00,,,-99.99,wx200d/1.3,2013-06-09 04:45:00,
2013-06-09 00:50:00,64.2,57.0,29.83,WNW,284,4.9,4.9,78,0.00,,,-99.99,wx200d/1.3,2013-06-09 04:50:00,
2013-06-09 00:55:00,64.2,57.0,29.83,West,275,4.9,4.9,78,0.00,,,-99.99,wx200d/1.3,2013-06-09 04:55:00,
2013-06-09 01:00:00,64.0,57.0,29.83,West,278,5.4,5.4,79,0.00,,,-99.99,wx200d/1.3,2013-06-09 05:00:00,
2013-06-09 01:05:00,64.0,57.0,29.83,West,265,4.5,4.5,79,0.00,,,-99.99,wx200d/1.3,2013-06-09 05:05:00,
2013-06-09 01:10:00,63.9,57.0,29.85,WNW,284,4.0,4.5,79,0.00,,,-99.99,wx200d/1.3,2013-06-09 05:10:00,
2013-06-09 01:15:00,63.9,57.0,29.85,West,268,4.5,4.5,79,0.00,,,-99.99,wx200d/1.3,2013-06-09 05:15:00,
2013-06-09 01:20:00,63.9,57.0,29.85,West,279,3.1,4.9,79,0.00,,,-99.99,wx200d/1.3,2013-06-09 05:20:00,
2013-06-09 01:25:00,63.7,57.0,29.85,West,275,3.1,3.1,79,0.00,,,-99.99,wx200d/1.3,2013-06-09 05:25:00,
2013-06-09 01:31:00,63.7,57.0,29.85,West,270,4.5,4.5,79,0.00,,,-99.99,wx200d/1.3,2013-06-09 05:31:00,
2013-06-09 01:36:00,63.7,57.0,29.85,West,268,3.1,5.8,79,0.00,,,-99.99,wx200d/1.3,2013-06-09 05:36:00,
2013-06-09 01:41:00,63.5,57.0,29.85,WNW,288,3.1,3.1,79,0.00,,,-99.99,wx200d/1.3,2013-06-09 05:41:00,
2013-06-09 01:46:00,63.5,57.0,29.85,West,273,4.0,4.0,80,0.00,,,-99.99,wx200d/1.3,2013-06-09 05:46:00,
2013-06-09 01:51:00,63.3,57.0,29.85,West,269,3.6,3.6,80,0.00,,,-99.99,wx200d/1.3,2013-06-09 05:51:00,
2013-06-09 01:57:00,63.1,57.0,29.85,WNW,291,4.5,4.9,80,0.00,,,-99.99,wx200d/1.3,2013-06-09 05:57:00,
2013-06-09 02:02:00,63.0,57.0,29.85,West,259,3.6,4.9,81,0.00,,,-99.99,wx200d/1.3,2013-06-09 06:02:00,
2013-06-09 02:07:00,63.0,57.0,29.85,WSW,254,3.6,3.6,81,0.00,,,-99.99,wx200d/1.3,2013-06-09 06:07:00,
2013-06-09 02:12:00,63.0,57.0,29.85,WNW,292,3.6,4.0,81,0.00,,,-99.99,wx200d/1.3,2013-06-09 06:12:00,
2013-06-09 02:17:00,62.8,57.0,29.85,WNW,293,3.6,3.6,81,0.00,,,-99.99,wx200d/1.3,2013-06-09 06:17:00,
2013-06-09 02:22:00,62.8,57.0,29.85,WNW,292,3.6,3.6,81,0.00,,,-99.99,wx200d/1.3,2013-06-09 06:22:00,
2013-06-09 02:27:00,62.6,57.0,29.85,WSW,247,3.1,3.1,81,0.00,,,-99.99,wx200d/1.3,2013-06-09 06:27:00,
2013-06-09 02:32:00,62.6,57.0,29.85,West,273,4.9,4.9,81,0.00,,,-99.99,wx200d/1.3,2013-06-09 06:32:00,
2013-06-09 02:37:00,62.4,57.0,29.85,WSW,243,3.6,0.0,81,0.00,,,-99.99,wx200d/1.3,2013-06-09 06:37:00,
2013-06-09 02:42:00,62.4,57.0,29.85,West,272,3.6,3.6,81,0.00,,,-99.99,wx200d/1.3,2013-06-09 06:42:00,
2013-06-09 02:47:00,62.2,57.0,29.85,West,275,3.6,5.4,82,0.00,,,-99.99,wx200d/1.3,2013-06-09 06:47:00,
2013-06-09 02:52:00,62.2,57.0,29.85,West,281,3.6,3.6,82,0.00,,,-99.99,wx200d/1.3,2013-06-09 06:52:00,
2013-06-09 02:57:00,62.1,57.0,29.85,WSW,258,4.0,4.0,83,0.00,,,-99.99,wx200d/1.3,2013-06-09 06:57:00,
2013-06-09 03:02:00,62.1,57.0,29.85,WSW,246,0.0,2.7,83,0.00,,,-99.99,wx200d/1.3,2013-06-09 07:02:00,
2013-06-09 03:07:00,62.1,57.0,29.85,West,278,4.0,4.0,83,0.00,,,-99.99,wx200d/1.3,2013-06-09 07:07:00,
2013-06-09 03:12:00,61.9,57.0,29.85,West,269,4.0,4.0,84,0.00,,,-99.99,wx200d/1.3,2013-06-09 07:12:00,
2013-06-09 03:17:00,61.7,57.0,29.85,WNW,285,4.0,4.5,85,0.00,,,-99.99,wx200d/1.3,2013-06-09 07:17:00,
2013-06-09 03:22:00,61.7,59.0,29.85,WNW,296,3.6,3.6,86,0.00,,,-99.99,wx200d/1.3,2013-06-09 07:22:00,
2013-06-09 03:27:00,61.5,57.0,29.85,WNW,283,3.6,3.6,86,0.00,,,-99.99,wx200d/1.3,2013-06-09 07:27:00,
2013-06-09 03:32:00,61.3,57.0,29.85,West,268,4.0,4.0,87,0.00,,,-99.99,wx200d/1.3,2013-06-09 07:32:00,
2013-06-09 03:37:00,61.3,57.0,29.85,WNW,302,3.6,3.6,87,0.00,,,-99.99,wx200d/1.3,2013-06-09 07:37:00,
2013-06-09 03:42:00,61.3,57.0,29.85,WSW,258,3.6,3.6,87,0.00,,,-99.99,wx200d/1.3,2013-06-09 07:42:00,
2013-06-09 03:47:00,61.3,57.0,29.85,WNW,289,3.6,4.0,87,0.00,,,-99.99,wx200d/1.3,2013-06-09 07:47:00,
2013-06-09 03:52:00,61.3,57.0,29.88,NW,310,4.5,4.5,87,0.00,,,-99.99,wx200d/1.3,2013-06-09 07:52:00,
2013-06-09 03:57:00,61.2,57.0,29.88,WNW,288,2.7,2.7,87,0.00,,,-99.99,wx200d/1.3,2013-06-09 07:57:00,
2013-06-09 04:02:00,61.2,57.0,29.88,WNW,294,3.1,3.1,87,0.00,,,-99.99,wx200d/1.3,2013-06-09 08:02:00,
2013-06-09 04:07:00,61.2,57.0,29.88,WSW,249,3.1,3.6,87,0.00,,,-99.99,wx200d/1.3,2013-06-09 08:07:00,
2013-06-09 04:12:00,61.2,57.0,29.88,WSW,256,3.1,3.6,87,0.00,,,-99.99,wx200d/1.3,2013-06-09 08:12:00,
2013-06-09 04:17:00,61.0,57.0,29.88,WSW,256,2.7,3.1,87,0.00,,,-99.99,wx200d/1.3,2013-06-09 08:17:00,
2013-06-09 04:22:00,61.0,57.0,29.88,WSW,256,0.0,0.0,87,0.00,,,-99.99,wx200d/1.3,2013-06-09 08:22:00,
2013-06-09 04:27:00,61.0,57.0,29.88,WSW,256,3.1,3.6,87,0.00,,,-99.99,wx200d/1.3,2013-06-09 08:27:00,
2013-06-09 04:32:00,60.8,57.0,29.88,WSW,256,0.0,0.0,87,0.00,,,-99.99,wx200d/1.3,2013-06-09 08:32:00,
2013-06-09 04:37:00,60.6,57.0,29.88,WSW,256,3.6,4.0,88,0.00,,,-99.99,wx200d/1.3,2013-06-09 08:37:00,
2013-06-09 04:42:00,60.6,57.0,29.88,West,266,3.6,0.0,88,0.00,,,-99.99,wx200d/1.3,2013-06-09 08:42:00,
2013-06-09 04:47:00,60.4,57.0,29.88,SW,228,4.5,4.5,89,0.00,,,-99.99,wx200d/1.3,2013-06-09 08:47:00,
2013-06-09 04:52:00,60.4,57.0,29.88,WNW,282,4.0,4.0,90,0.00,,,-99.99,wx200d/1.3,2013-06-09 08:52:00,
2013-06-09 04:57:00,60.4,57.0,29.88,West,281,3.6,4.0,90,0.00,,,-99.99,wx200d/1.3,2013-06-09 08:57:00,
2013-06-09 05:02:00,60.3,59.0,29.88,West,270,2.7,3.1,91,0.00,,,-99.99,wx200d/1.3,2013-06-09 09:02:00,
2013-06-09 05:07:00,60.3,59.0,29.88,West,271,0.0,0.0,91,0.00,,,-99.99,wx200d/1.3,2013-06-09 09:07:00,
2013-06-09 05:12:00,60.3,59.0,29.88,West,270,0.0,0.0,91,0.00,,,-99.99,wx200d/1.3,2013-06-09 09:12:00,
2013-06-09 05:17:00,60.3,59.0,29.88,WSW,251,4.0,4.0,91,0.00,,,-99.99,wx200d/1.3,2013-06-09 09:17:00,
2013-06-09 05:22:00,60.3,59.0,29.88,West,261,3.6,4.5,91,0.00,,,-99.99,wx200d/1.3,2013-06-09 09:22:00,
2013-06-09 05:27:00,60.1,59.0,29.88,West,275,3.1,3.1,91,0.00,,,-99.99,wx200d/1.3,2013-06-09 09:27:00,
2013-06-09 05:32:00,60.1,59.0,29.88,West,275,3.1,3.6,91,0.00,,,-99.99,wx200d/1.3,2013-06-09 09:32:00,
2013-06-09 05:37:00,60.3,59.0,29.88,WSW,256,3.1,3.6,91,0.00,,,-99.99,wx200d/1.3,2013-06-09 09:37:00,
2013-06-09 05:42:00,60.4,59.0,29.88,West,275,3.6,3.6,91,0.00,,,-99.99,wx200d/1.3,2013-06-09 09:42:00,
2013-06-09 05:47:00,60.6,59.0,29.88,West,272,3.6,4.5,91,0.00,,,-99.99,wx200d/1.3,2013-06-09 09:47:00,
2013-06-09 05:52:00,61.0,57.0,29.88,West,266,3.6,3.6,90,0.00,,,-99.99,wx200d/1.3,2013-06-09 09:52:00,
2013-06-09 05:57:00,61.3,57.0,29.88,West,274,4.5,4.9,89,0.00,,,-99.99,wx200d/1.3,2013-06-09 09:57:00,
2013-06-09 06:02:00,61.7,59.0,29.88,West,259,4.5,4.5,87,0.00,,,-99.99,wx200d/1.3,2013-06-09 10:02:00,
2013-06-09 06:07:00,62.4,57.0,29.88,WNW,286,3.6,3.6,85,0.00,,,-99.99,wx200d/1.3,2013-06-09 10:07:00,
2013-06-09 06:12:00,63.5,59.0,29.88,West,279,4.5,4.5,83,0.00,,,-99.99,wx200d/1.3,2013-06-09 10:12:00,
2013-06-09 06:17:00,63.5,57.0,29.88,West,271,4.0,4.0,79,0.00,,,-99.99,wx200d/1.3,2013-06-09 10:17:00,
2013-06-09 06:22:00,63.9,57.0,29.91,West,281,4.5,0.0,77,0.00,,,-99.99,wx200d/1.3,2013-06-09 10:22:00,
2013-06-09 06:27:00,64.8,55.0,29.91,WSW,250,4.9,4.9,74,0.00,,,-99.99,wx200d/1.3,2013-06-09 10:27:00,
2013-06-09 06:32:00,64.6,55.0,29.91,West,264,4.9,5.4,72,0.00,,,-99.99,wx200d/1.3,2013-06-09 10:32:00,
2013-06-09 06:37:00,65.7,57.0,29.91,WNW,286,4.9,6.3,71,0.00,,,-99.99,wx200d/1.3,2013-06-09 10:37:00,
2013-06-09 06:42:00,66.7,55.0,29.91,North,351,4.5,4.9,69,0.00,,,-99.99,wx200d/1.3,2013-06-09 10:42:00,
2013-06-09 06:47:00,67.1,55.0,29.91,West,266,4.9,5.8,63,0.00,,,-99.99,wx200d/1.3,2013-06-09 10:47:00,
2013-06-09 06:52:00,66.9,52.0,29.91,WNW,293,4.9,5.4,61,0.00,,,-99.99,wx200d/1.3,2013-06-09 10:52:00,
2013-06-09 06:57:00,66.6,52.0,29.91,West,260,5.8,6.3,61,0.00,,,-99.99,wx200d/1.3,2013-06-09 10:57:00,
2013-06-09 07:02:00,67.3,54.0,29.91,West,273,5.4,5.4,60,0.00,,,-99.99,wx200d/1.3,2013-06-09 11:02:00,
2013-06-09 07:07:00,67.6,52.0,29.91,West,271,4.9,4.9,56,0.00,,,-99.99,wx200d/1.3,2013-06-09 11:07:00,
2013-06-09 07:12:00,67.6,52.0,29.91,WNW,291,4.9,6.3,57,0.00,,,-99.99,wx200d/1.3,2013-06-09 11:12:00,
2013-06-09 07:17:00,67.6,52.0,29.91,WSW,252,3.1,3.1,56,0.00,,,-99.99,wx200d/1.3,2013-06-09 11:17:00,
2013-06-09 07:22:00,69.3,54.0,29.91,WNW,286,5.8,5.8,55,0.00,,,-99.99,wx200d/1.3,2013-06-09 11:22:00,
2013-06-09 07:27:00,69.4,50.0,29.91,WNW,291,4.5,4.5,50,0.00,,,-99.99,wx200d/1.3,2013-06-09 11:27:00,
2013-06-09 07:32:00,68.5,48.0,29.91,West,275,4.0,4.0,49,0.00,,,-99.99,wx200d/1.3,2013-06-09 11:32:00,
2013-06-09 07:37:00,68.7,48.0,29.91,WNW,284,5.8,6.3,48,0.00,,,-99.99,wx200d/1.3,2013-06-09 11:37:00,
2013-06-09 07:43:00,69.6,50.0,29.91,NW,318,5.8,5.8,48,0.00,,,-99.99,wx200d/1.3,2013-06-09 11:43:00,
2013-06-09 07:48:00,70.5,46.0,29.91,WSW,256,4.9,4.9,43,0.00,,,-99.99,wx200d/1.3,2013-06-09 11:48:00,
2013-06-09 07:53:00,71.2,46.0,29.91,WNW,298,6.3,6.3,41,0.00,,,-99.99,wx200d/1.3,2013-06-09 11:53:00,
2013-06-09 07:58:00,70.9,45.0,29.91,West,279,6.3,6.3,37,0.00,,,-99.99,wx200d/1.3,2013-06-09 11:58:00,
2013-06-09 08:03:00,71.8,45.0,29.91,WNW,298,3.1,4.5,39,0.00,,,-99.99,wx200d/1.3,2013-06-09 12:03:00,
2013-06-09 08:09:00,71.6,43.0,29.91,NW,316,6.3,6.9,35,0.00,,,-99.99,wx200d/1.3,2013-06-09 12:09:00,
2013-06-09 08:14:00,70.5,43.0,29.91,West,281,6.9,6.9,37,0.00,,,-99.99,wx200d/1.3,2013-06-09 12:14:00,
2013-06-09 08:19:00,70.3,46.0,29.91,NNW,328,5.4,6.7,43,0.00,,,-99.99,wx200d/1.3,2013-06-09 12:19:00,
2013-06-09 08:24:00,72.1,46.0,29.94,WNW,282,4.5,11.0,40,0.00,,,-99.99,wx200d/1.3,2013-06-09 12:24:00,
2013-06-09 08:29:00,73.6,43.0,29.94,North,351,7.8,7.8,33,0.00,,,-99.99,wx200d/1.3,2013-06-09 12:29:00,
2013-06-09 08:34:00,73.6,41.0,29.94,NE,52,3.1,7.8,31,0.00,,,-99.99,wx200d/1.3,2013-06-09 12:34:00,
2013-06-09 08:39:00,73.9,41.0,29.94,North,10,6.9,6.9,31,0.00,,,-99.99,wx200d/1.3,2013-06-09 12:39:00,
2013-06-09 08:44:00,73.9,41.0,29.94,SSW,199,5.4,5.4,31,0.00,,,-99.99,wx200d/1.3,2013-06-09 12:44:00,
2013-06-09 08:49:00,74.8,41.0,29.94,WSW,239,7.8,7.8,30,0.00,,,-99.99,wx200d/1.3,2013-06-09 12:49:00,
2013-06-09 08:54:00,75.0,39.0,29.94,WNW,284,4.5,4.5,28,0.00,,,-99.99,wx200d/1.3,2013-06-09 12:54:00,
2013-06-09 08:59:00,76.1,41.0,29.94,NNW,334,6.3,6.3,27,0.00,,,-99.99,wx200d/1.3,2013-06-09 12:59:00,
2013-06-09 09:04:00,75.9,37.0,29.94,NW,311,4.5,4.5,26,0.00,,,-99.99,wx200d/1.3,2013-06-09 13:04:00,
2013-06-09 09:09:00,76.3,37.0,29.94,WNW,292,6.7,6.7,24,0.00,,,-99.99,wx200d/1.3,2013-06-09 13:09:00,
2013-06-09 09:14:00,76.1,39.0,29.94,NNW,327,5.8,5.8,25,0.00,,,-99.99,wx200d/1.3,2013-06-09 13:14:00,
2013-06-09 09:19:00,76.5,39.0,29.94,North,351,4.9,5.8,25,0.00,,,-99.99,wx200d/1.3,2013-06-09 13:19:00,
2013-06-09 09:24:00,77.5,37.0,29.94,WNW,297,6.7,6.7,24,0.00,,,-99.99,wx200d/1.3,2013-06-09 13:24:00,
2013-06-09 09:29:00,77.9,37.0,29.94,ENE,62,6.3,6.3,23,0.00,,,-99.99,wx200d/1.3,2013-06-09 13:29:00,
2013-06-09 09:34:00,77.9,37.0,29.94,West,265,5.4,6.7,22,0.00,,,-99.99,wx200d/1.3,2013-06-09 13:34:00,
2013-06-09 09:40:00,78.6,36.0,29.94,NNW,333,4.9,4.9,21,0.00,,,-99.99,wx200d/1.3,2013-06-09 13:40:00,
2013-06-09 09:45:00,78.4,36.0,29.94,North,1,7.4,7.4,21,0.00,,,-99.99,wx200d/1.3,2013-06-09 13:45:00,
2013-06-09 09:50:00,78.4,36.0,29.94,WNW,291,6.3,6.3,21,0.00,,,-99.99,wx200d/1.3,2013-06-09 13:50:00,
2013-06-09 09:55:00,78.3,36.0,29.94,NW,317,4.5,7.8,21,0.00,,,-99.99,wx200d/1.3,2013-06-09 13:55:00,
2013-06-09 10:00:00,78.1,36.0,29.94,NW,318,6.3,6.3,21,0.00,,,-99.99,wx200d/1.3,2013-06-09 14:00:00,
2013-06-09 10:05:00,77.7,34.0,29.94,NW,307,5.4,5.4,21,0.00,,,-99.99,wx200d/1.3,2013-06-09 14:05:00,
2013-06-09 10:10:00,78.1,36.0,29.94,NW,310,7.8,7.8,21,0.00,,,-99.99,wx200d/1.3,2013-06-09 14:10:00,
2013-06-09 10:15:00,78.3,34.0,29.94,North,356,5.8,8.7,20,0.00,,,-99.99,wx200d/1.3,2013-06-09 14:15:00,
2013-06-09 10:20:00,78.4,34.0,29.94,NE,34,6.7,6.7,20,0.00,,,-99.99,wx200d/1.3,2013-06-09 14:20:00,
2013-06-09 10:25:00,78.4,34.0,29.94,SW,217,4.0,6.3,20,0.00,,,-99.99,wx200d/1.3,2013-06-09 14:25:00,
2013-06-09 10:30:00,78.8,34.0,29.94,NW,324,6.3,7.4,20,0.00,,,-99.99,wx200d/1.3,2013-06-09 14:30:00,
2013-06-09 10:35:00,78.4,34.0,29.94,NW,321,6.3,6.3,20,0.00,,,-99.99,wx200d/1.3,2013-06-09 14:35:00,
2013-06-09 10:40:00,79.3,34.0,29.94,NNW,337,5.4,0.0,20,0.00,,,-99.99,wx200d/1.3,2013-06-09 14:40:00,
2013-06-09 10:45:00,79.7,36.0,29.94,NNW,343,5.8,5.8,20,0.00,,,-99.99,wx200d/1.3,2013-06-09 14:45:00,
2013-06-09 10:50:00,80.2,34.0,29.94,NNW,339,4.5,4.5,19,0.00,,,-99.99,wx200d/1.3,2013-06-09 14:50:00,
2013-06-09 10:55:00,79.7,32.0,29.94,WSW,255,5.4,6.7,17,0.00,,,-99.99,wx200d/1.3,2013-06-09 14:55:00,
2013-06-09 11:00:00,79.7,32.0,29.94,WNW,295,5.4,5.4,17,0.00,,,-99.99,wx200d/1.3,2013-06-09 15:00:00,
2013-06-09 11:05:00,81.1,32.0,29.94,West,279,4.0,9.2,17,0.00,,,-99.99,wx200d/1.3,2013-06-09 15:05:00,
2013-06-09 11:10:00,80.2,32.0,29.94,WNW,293,6.3,7.8,14,0.00,,,-99.99,wx200d/1.3,2013-06-09 15:10:00,
2013-06-09 11:15:00,80.4,32.0,29.94,NW,324,7.8,7.8,14,0.00,,,-99.99,wx200d/1.3,2013-06-09 15:15:00,
2013-06-09 11:20:00,81.0,32.0,29.94,WNW,293,4.9,5.4,14,0.00,,,-99.99,wx200d/1.3,2013-06-09 15:20:00,
2013-06-09 11:25:00,82.0,32.0,29.94,SW,223,6.7,6.7,14,0.00,,,-99.99,wx200d/1.3,2013-06-09 15:25:00,
2013-06-09 11:30:00,82.6,32.0,29.94,WNW,290,3.6,4.9,14,0.00,,,-99.99,wx200d/1.3,2013-06-09 15:30:00,
2013-06-09 11:35:00,82.2,32.0,29.94,WNW,296,3.6,8.7,14,0.00,,,-99.99,wx200d/1.3,2013-06-09 15:35:00,
2013-06-09 11:40:00,82.0,32.0,29.91,NNW,343,5.4,7.8,14,0.00,,,-99.99,wx200d/1.3,2013-06-09 15:40:00,
2013-06-09 11:45:00,82.9,32.0,29.91,NNW,331,4.9,8.3,14,0.00,,,-99.99,wx200d/1.3,2013-06-09 15:45:00,
2013-06-09 11:50:00,83.3,32.0,29.91,North,11,4.0,7.4,13,0.00,,,-99.99,wx200d/1.3,2013-06-09 15:50:00,
2013-06-09 11:55:00,83.3,32.0,29.91,West,269,5.8,5.8,14,0.00,,,-99.99,wx200d/1.3,2013-06-09 15:55:00,
2013-06-09 12:00:00,82.9,32.0,29.91,WSW,247,7.8,7.8,14,0.00,,,-99.99,wx200d/1.3,2013-06-09 16:00:00,
2013-06-09 12:05:00,82.0,32.0,29.91,NW,312,7.4,7.8,14,0.00,,,-99.99,wx200d/1.3,2013-06-09 16:05:00,
2013-06-09 12:10:00,81.9,32.0,29.91,NW,316,8.3,8.3,14,0.00,,,-99.99,wx200d/1.3,2013-06-09 16:10:00,
2013-06-09 12:15:00,82.2,32.0,29.91,North,356,2.7,0.0,11,0.00,,,-99.99,wx200d/1.3,2013-06-09 16:15:00,
2013-06-09 12:20:00,83.5,32.0,29.91,NW,314,6.3,6.3,11,0.00,,,-99.99,wx200d/1.3,2013-06-09 16:20:00,
2013-06-09 12:25:00,82.9,32.0,29.91,North,11,6.3,6.3,11,0.00,,,-99.99,wx200d/1.3,2013-06-09 16:25:00,
2013-06-09 12:30:00,82.9,32.0,29.91,North,6,4.9,4.9,11,0.00,,,-99.99,wx200d/1.3,2013-06-09 16:30:00,
2013-06-09 12:35:00,83.8,32.0,29.91,West,275,7.8,7.8,11,0.00,,,-99.99,wx200d/1.3,2013-06-09 16:35:00,
2013-06-09 12:40:00,84.0,32.0,29.91,NE,50,4.5,6.3,11,0.00,,,-99.99,wx200d/1.3,2013-06-09 16:40:00,
2013-06-09 12:45:00,84.6,32.0,29.91,NNW,333,7.8,7.8,11,0.00,,,-99.99,wx200d/1.3,2013-06-09 16:45:00,
2013-06-09 12:50:00,83.7,32.0,29.91,North,0,4.9,5.8,11,0.00,,,-99.99,wx200d/1.3,2013-06-09 16:50:00,
2013-06-09 12:55:00,84.2,32.0,29.91,WNW,287,6.3,6.3,11,0.00,,,-99.99,wx200d/1.3,2013-06-09 16:55:00,
2013-06-09 13:00:00,84.7,32.0,29.91,West,269,4.0,6.3,11,0.00,,,-99.99,wx200d/1.3,2013-06-09 17:00:00,
2013-06-09 13:05:00,86.0,32.0,29.91,NE,49,3.6,4.0,11,0.00,,,-99.99,wx200d/1.3,2013-06-09 17:05:00,
2013-06-09 13:10:00,85.5,32.0,29.91,NNE,30,4.5,6.3,11,0.00,,,-99.99,wx200d/1.3,2013-06-09 17:10:00,
2013-06-09 13:15:00,85.3,32.0,29.91,North,356,5.8,12.1,11,0.00,,,-99.99,wx200d/1.3,2013-06-09 17:15:00,
2013-06-09 13:20:00,84.6,32.0,29.91,North,10,3.6,4.0,11,0.00,,,-99.99,wx200d/1.3,2013-06-09 17:20:00,
2013-06-09 13:25:00,84.6,32.0,29.91,WSW,257,6.9,6.9,11,0.00,,,-99.99,wx200d/1.3,2013-06-09 17:25:00,
2013-06-09 13:30:00,85.1,32.0,29.91,West,268,5.4,5.4,11,0.00,,,-99.99,wx200d/1.3,2013-06-09 17:30:00,
2013-06-09 13:35:00,85.1,32.0,29.91,SW,217,5.8,5.8,11,0.00,,,-99.99,wx200d/1.3,2013-06-09 17:35:00,
2013-06-09 13:40:00,84.9,32.0,29.91,ESE,108,4.5,6.9,11,0.00,,,-99.99,wx200d/1.3,2013-06-09 17:40:00,
2013-06-09 13:45:00,83.5,32.0,29.91,West,270,6.9,6.9,11,0.00,,,-99.99,wx200d/1.3,2013-06-09 17:45:00,
2013-06-09 13:50:00,82.8,32.0,29.91,NW,313,3.1,4.0,11,0.00,,,-99.99,wx200d/1.3,2013-06-09 17:50:00,
2013-06-09 13:55:00,82.4,32.0,29.91,NNW,343,6.3,6.3,11,0.00,,,-99.99,wx200d/1.3,2013-06-09 17:55:00,
2013-06-09 14:01:00,82.2,32.0,29.91,West,265,6.9,10.1,11,0.00,,,-99.99,wx200d/1.3,2013-06-09 18:01:00,
2013-06-09 14:06:00,82.2,32.0,29.88,WNW,296,4.0,0.0,11,0.00,,,-99.99,wx200d/1.3,2013-06-09 18:06:00,
2013-06-09 14:11:00,82.2,32.0,29.88,West,268,4.9,8.3,11,0.00,,,-99.99,wx200d/1.3,2013-06-09 18:11:00,
2013-06-09 14:16:00,81.7,32.0,29.88,NNW,342,4.5,8.3,11,0.00,,,-99.99,wx200d/1.3,2013-06-09 18:16:00,
2013-06-09 14:21:00,81.3,32.0,29.91,West,275,3.6,3.6,12,0.00,,,-99.99,wx200d/1.3,2013-06-09 18:21:00,
2013-06-09 14:26:00,82.6,32.0,29.91,West,268,4.5,0.0,11,0.00,,,-99.99,wx200d/1.3,2013-06-09 18:26:00,
2013-06-09 14:31:00,83.3,32.0,29.91,NNW,340,3.6,5.8,11,0.00,,,-99.99,wx200d/1.3,2013-06-09 18:31:00,
2013-06-09 14:36:00,82.6,32.0,29.91,NNW,331,4.9,5.4,11,0.00,,,-99.99,wx200d/1.3,2013-06-09 18:36:00,
2013-06-09 14:41:00,83.1,32.0,29.91,WSW,245,6.3,6.3,11,0.00,,,-99.99,wx200d/1.3,2013-06-09 18:41:00,
2013-06-09 14:46:00,83.5,32.0,29.91,North,2,4.5,6.7,11,0.00,,,-99.99,wx200d/1.3,2013-06-09 18:46:00,
2013-06-09 14:51:00,82.4,32.0,29.91,WNW,300,7.4,7.4,11,0.00,,,-99.99,wx200d/1.3,2013-06-09 18:51:00,
2013-06-09 14:56:00,82.2,32.0,29.91,West,263,5.8,5.8,11,0.00,,,-99.99,wx200d/1.3,2013-06-09 18:56:00,
2013-06-09 15:01:00,83.7,32.0,29.91,NW,312,6.3,6.7,11,0.00,,,-99.99,wx200d/1.3,2013-06-09 19:01:00,
2013-06-09 15:06:00,82.9,32.0,29.88,West,280,5.8,5.8,11,0.00,,,-99.99,wx200d/1.3,2013-06-09 19:06:00,
2013-06-09 15:11:00,82.8,32.0,29.88,WNW,293,5.8,8.7,11,0.00,,,-99.99,wx200d/1.3,2013-06-09 19:11:00,
2013-06-09 15:16:00,81.9,32.0,29.88,NNE,21,5.8,6.7,11,0.00,,,-99.99,wx200d/1.3,2013-06-09 19:16:00,
2013-06-09 15:21:00,81.3,32.0,29.91,WNW,282,6.3,7.4,12,0.00,,,-99.99,wx200d/1.3,2013-06-09 19:21:00,
2013-06-09 15:26:00,82.2,32.0,29.91,NW,307,4.0,5.8,14,0.00,,,-99.99,wx200d/1.3,2013-06-09 19:26:00,
2013-06-09 15:31:00,82.4,32.0,29.91,NW,324,8.3,8.3,14,0.00,,,-99.99,wx200d/1.3,2013-06-09 19:31:00,
2013-06-09 15:36:00,82.8,32.0,29.91,NNW,337,7.8,9.2,11,0.00,,,-99.99,wx200d/1.3,2013-06-09 19:36:00,
2013-06-09 15:41:00,81.9,32.0,29.91,WNW,292,5.4,7.4,11,0.00,,,-99.99,wx200d/1.3,2013-06-09 19:41:00,
2013-06-09 15:46:00,81.9,32.0,29.91,NNE,32,4.9,4.9,11,0.00,,,-99.99,wx200d/1.3,2013-06-09 19:46:00,
2013-06-09 15:51:00,81.5,32.0,29.91,West,272,6.9,6.9,14,0.00,,,-99.99,wx200d/1.3,2013-06-09 19:51:00,
2013-06-09 15:56:00,82.0,32.0,29.91,West,267,4.0,7.4,14,0.00,,,-99.99,wx200d/1.3,2013-06-09 19:56:00,
2013-06-09 16:01:00,81.9,32.0,29.91,WSW,251,6.7,9.6,14,0.00,,,-99.99,wx200d/1.3,2013-06-09 20:01:00,
2013-06-09 16:07:00,82.4,32.0,29.88,WNW,301,6.7,6.7,14,0.00,,,-99.99,wx200d/1.3,2013-06-09 20:07:00,
2013-06-09 16:12:00,83.1,32.0,29.88,NW,322,6.7,6.7,14,0.00,,,-99.99,wx200d/1.3,2013-06-09 20:12:00,
2013-06-09 16:17:00,83.5,32.0,29.88,NNW,341,6.3,8.3,13,0.00,,,-99.99,wx200d/1.3,2013-06-09 20:17:00,
2013-06-09 16:22:00,83.7,32.0,29.88,WNW,287,6.7,6.7,11,0.00,,,-99.99,wx200d/1.3,2013-06-09 20:22:00,
2013-06-09 16:27:00,83.5,32.0,29.88,WNW,283,4.5,4.5,13,0.00,,,-99.99,wx200d/1.3,2013-06-09 20:27:00,
2013-06-09 16:32:00,82.8,32.0,29.88,West,266,7.8,7.8,14,0.00,,,-99.99,wx200d/1.3,2013-06-09 20:32:00,
2013-06-09 16:37:00,81.9,32.0,29.88,West,277,9.2,9.6,14,0.00,,,-99.99,wx200d/1.3,2013-06-09 20:37:00,
2013-06-09 16:42:00,82.4,32.0,29.88,West,279,6.7,6.7,14,0.00,,,-99.99,wx200d/1.3,2013-06-09 20:42:00,
2013-06-09 16:47:00,82.6,32.0,29.88,WNW,288,8.7,8.7,11,0.00,,,-99.99,wx200d/1.3,2013-06-09 20:47:00,
2013-06-09 16:52:00,81.7,32.0,29.91,West,261,8.7,8.7,11,0.00,,,-99.99,wx200d/1.3,2013-06-09 20:52:00,
2013-06-09 16:58:00,81.7,32.0,29.91,NW,325,6.3,7.4,14,0.00,,,-99.99,wx200d/1.3,2013-06-09 20:58:00,
2013-06-09 17:03:00,81.3,32.0,29.91,NNW,333,10.1,10.1,12,0.00,,,-99.99,wx200d/1.3,2013-06-09 21:03:00,
2013-06-09 17:08:00,81.5,32.0,29.88,North,7,7.8,8.7,11,0.00,,,-99.99,wx200d/1.3,2013-06-09 21:08:00,
2013-06-09 17:13:00,81.5,32.0,29.88,WNW,284,5.8,9.2,11,0.00,,,-99.99,wx200d/1.3,2013-06-09 21:13:00,
2013-06-09 17:18:00,81.7,32.0,29.88,North,2,4.0,4.9,14,0.00,,,-99.99,wx200d/1.3,2013-06-09 21:18:00,
2013-06-09 17:23:00,82.4,32.0,29.88,West,266,7.4,7.4,11,0.00,,,-99.99,wx200d/1.3,2013-06-09 21:23:00,
2013-06-09 17:28:00,82.8,32.0,29.88,WNW,300,6.7,6.7,11,0.00,,,-99.99,wx200d/1.3,2013-06-09 21:28:00,
2013-06-09 17:33:00,82.0,32.0,29.88,NNW,330,7.4,8.7,11,0.00,,,-99.99,wx200d/1.3,2013-06-09 21:33:00,
2013-06-09 17:38:00,81.5,32.0,29.91,West,276,5.4,6.9,12,0.00,,,-99.99,wx200d/1.3,2013-06-09 21:38:00,
2013-06-09 17:43:00,81.5,32.0,29.91,WNW,285,4.5,6.3,12,0.00,,,-99.99,wx200d/1.3,2013-06-09 21:43:00,
2013-06-09 17:48:00,81.9,32.0,29.91,WSW,255,4.5,4.9,11,0.00,,,-99.99,wx200d/1.3,2013-06-09 21:48:00,
2013-06-09 17:53:00,82.0,32.0,29.91,NNE,31,4.0,9.6,11,0.00,,,-99.99,wx200d/1.3,2013-06-09 21:53:00,
2013-06-09 17:58:00,82.4,32.0,29.91,WNW,298,4.0,4.0,11,0.00,,,-99.99,wx200d/1.3,2013-06-09 21:58:00,
2013-06-09 18:03:00,82.8,32.0,29.91,NNE,15,5.8,5.8,11,0.00,,,-99.99,wx200d/1.3,2013-06-09 22:03:00,
2013-06-09 18:08:00,82.2,32.0,29.91,NNW,335,7.4,10.5,11,0.00,,,-99.99,wx200d/1.3,2013-06-09 22:08:00,
2013-06-09 18:13:00,82.4,32.0,29.91,West,264,5.4,5.4,11,0.00,,,-99.99,wx200d/1.3,2013-06-09 22:13:00,
2013-06-09 18:18:00,82.0,32.0,29.91,West,270,8.7,8.7,11,0.00,,,-99.99,wx200d/1.3,2013-06-09 22:18:00,
2013-06-09 18:23:00,81.9,32.0,29.91,WNW,297,6.3,11.2,11,0.00,,,-99.99,wx200d/1.3,2013-06-09 22:23:00,
2013-06-09 18:28:00,81.7,32.0,29.91,NW,305,4.5,4.9,11,0.00,,,-99.99,wx200d/1.3,2013-06-09 22:28:00,
2013-06-09 18:33:00,81.3,32.0,29.91,West,266,5.8,5.8,12,0.00,,,-99.99,wx200d/1.3,2013-06-09 22:33:00,
2013-06-09 18:38:00,81.3,32.0,29.91,WSW,255,6.3,6.3,12,0.00,,,-99.99,wx200d/1.3,2013-06-09 22:38:00,
2013-06-09 18:43:00,80.6,32.0,29.91,WNW,285,5.4,6.3,12,0.00,,,-99.99,wx200d/1.3,2013-06-09 22:43:00,
2013-06-09 18:48:00,80.6,32.0,29.91,NW,308,5.4,6.9,12,0.00,,,-99.99,wx200d/1.3,2013-06-09 22:48:00,
2013-06-09 18:53:00,80.8,32.0,29.91,WSW,237,3.6,3.6,12,0.00,,,-99.99,wx200d/1.3,2013-06-09 22:53:00,
2013-06-09 18:58:00,80.6,32.0,29.91,SSW,211,4.5,5.8,12,0.00,,,-99.99,wx200d/1.3,2013-06-09 22:58:00,
2013-06-09 19:03:00,80.8,32.0,29.91,NW,323,4.5,7.8,12,0.00,,,-99.99,wx200d/1.3,2013-06-09 23:03:00,
2013-06-09 19:08:00,80.4,32.0,29.91,West,259,5.4,5.8,12,0.00,,,-99.99,wx200d/1.3,2013-06-09 23:08:00,
2013-06-09 19:13:00,80.2,32.0,29.91,WSW,253,4.9,6.3,12,0.00,,,-99.99,wx200d/1.3,2013-06-09 23:13:00,
2013-06-09 19:18:00,80.2,32.0,29.91,North,6,4.5,4.5,14,0.00,,,-99.99,wx200d/1.3,2013-06-09 23:18:00,
2013-06-09 19:23:00,80.4,32.0,29.91,WNW,294,4.5,4.5,14,0.00,,,-99.99,wx200d/1.3,2013-06-09 23:23:00,
2013-06-09 19:28:00,80.1,32.0,29.91,West,272,6.3,6.3,14,0.00,,,-99.99,wx200d/1.3,2013-06-09 23:28:00,
2013-06-09 19:33:00,79.9,32.0,29.91,NW,319,3.6,4.0,14,0.00,,,-99.99,wx200d/1.3,2013-06-09 23:33:00,
2013-06-09 19:38:00,79.7,32.0,29.91,West,275,3.1,3.1,14,0.00,,,-99.99,wx200d/1.3,2013-06-09 23:38:00,
2013-06-09 19:43:00,79.2,32.0,29.91,North,356,4.5,4.5,15,0.00,,,-99.99,wx200d/1.3,2013-06-09 23:43:00,
2013-06-09 19:48:00,78.6,32.0,29.91,West,267,3.6,3.6,15,0.00,,,-99.99,wx200d/1.3,2013-06-09 23:48:00,
2013-06-09 19:53:00,78.3,32.0,29.94,WNW,282,3.6,4.5,15,0.00,,,-99.99,wx200d/1.3,2013-06-09 23:53:00,
2013-06-09 19:58:00,78.1,32.0,29.94,WNW,291,3.6,3.6,17,0.00,,,-99.99,wx200d/1.3,2013-06-09 23:58:00,
2013-06-09 20:03:00,77.9,32.0,29.94,West,271,4.0,4.5,18,0.00,,,-99.99,wx200d/1.3,2013-06-10 00:03:00,
2013-06-09 20:08:00,77.5,32.0,29.94,SE,133,4.0,0.0,18,0.00,,,-99.99,wx200d/1.3,2013-06-10 00:08:00,
2013-06-09 20:13:00,77.2,34.0,29.94,WNW,296,4.0,0.0,20,0.00,,,-99.99,wx200d/1.3,2013-06-10 00:13:00,
2013-06-09 20:18:00,77.0,34.0,29.94,West,267,3.1,3.1,20,0.00,,,-99.99,wx200d/1.3,2013-06-10 00:18:00,
2013-06-09 20:23:00,76.6,34.0,29.94,WNW,297,3.1,0.0,20,0.00,,,-99.99,wx200d/1.3,2013-06-10 00:23:00,
2013-06-09 20:28:00,76.3,34.0,29.94,WNW,289,3.6,3.6,20,0.00,,,-99.99,wx200d/1.3,2013-06-10 00:28:00,
2013-06-09 20:33:00,76.3,34.0,29.94,NNW,342,0.0,0.0,21,0.00,,,-99.99,wx200d/1.3,2013-06-10 00:33:00,
2013-06-09 20:38:00,75.9,32.0,29.94,West,274,2.7,0.0,21,0.00,,,-99.99,wx200d/1.3,2013-06-10 00:38:00,
2013-06-09 20:43:00,75.7,34.0,29.94,West,270,3.1,0.0,22,0.00,,,-99.99,wx200d/1.3,2013-06-10 00:43:00,
2013-06-09 20:48:00,75.4,34.0,29.94,NNW,338,3.1,0.0,22,0.00,,,-99.99,wx200d/1.3,2013-06-10 00:48:00,
2013-06-09 20:53:00,75.4,34.0,29.94,NNW,337,0.0,0.0,22,0.00,,,-99.99,wx200d/1.3,2013-06-10 00:53:00,
2013-06-09 20:58:00,75.2,34.0,29.94,WNW,285,0.0,0.0,22,0.00,,,-99.99,wx200d/1.3,2013-06-10 00:58:00,
2013-06-09 21:03:00,75.0,34.0,29.94,WNW,282,0.0,0.0,22,0.00,,,-99.99,wx200d/1.3,2013-06-10 01:03:00,
2013-06-09 21:08:00,74.8,36.0,29.94,West,269,0.0,0.0,23,0.00,,,-99.99,wx200d/1.3,2013-06-10 01:08:00,
2013-06-09 21:13:00,74.5,36.0,29.94,WSW,250,0.0,2.7,23,0.00,,,-99.99,wx200d/1.3,2013-06-10 01:13:00,
2013-06-09 21:18:00,74.3,36.0,29.94,WSW,250,0.0,0.0,24,0.00,,,-99.99,wx200d/1.3,2013-06-10 01:18:00,
2013-06-09 21:23:00,74.1,36.0,29.94,West,267,0.0,0.0,25,0.00,,,-99.99,wx200d/1.3,2013-06-10 01:23:00,
2013-06-09 21:28:00,73.9,36.0,29.94,West,267,0.0,0.0,25,0.00,,,-99.99,wx200d/1.3,2013-06-10 01:28:00,
2013-06-09 21:33:00,73.8,36.0,29.94,West,267,0.0,3.6,26,0.00,,,-99.99,wx200d/1.3,2013-06-10 01:33:00,
2013-06-09 21:38:00,73.4,37.0,29.94,West,262,0.0,2.7,27,0.00,,,-99.99,wx200d/1.3,2013-06-10 01:38:00,
2013-06-09 21:43:00,73.0,39.0,29.94,West,267,0.0,0.0,28,0.00,,,-99.99,wx200d/1.3,2013-06-10 01:43:00,
2013-06-09 21:48:00,73.0,39.0,29.94,West,267,3.6,4.9,28,0.00,,,-99.99,wx200d/1.3,2013-06-10 01:48:00,
2013-06-09 21:53:00,72.9,39.0,29.97,WNW,282,4.0,4.5,28,0.00,,,-99.99,wx200d/1.3,2013-06-10 01:53:00,
2013-06-09 21:58:00,72.7,39.0,29.97,West,280,3.6,4.5,29,0.00,,,-99.99,wx200d/1.3,2013-06-10 01:58:00,
2013-06-09 22:03:00,72.5,41.0,29.97,West,275,3.6,3.6,30,0.00,,,-99.99,wx200d/1.3,2013-06-10 02:03:00,
2013-06-09 22:08:00,72.3,39.0,29.97,WNW,282,3.6,4.0,31,0.00,,,-99.99,wx200d/1.3,2013-06-10 02:08:00,
2013-06-09 22:13:00,72.0,39.0,29.97,West,265,4.0,4.0,32,0.00,,,-99.99,wx200d/1.3,2013-06-10 02:13:00,
2013-06-09 22:18:00,71.6,41.0,29.97,WNW,283,4.0,4.9,32,0.00,,,-99.99,wx200d/1.3,2013-06-10 02:18:00,
2013-06-09 22:23:00,71.4,41.0,29.97,WNW,282,4.5,4.5,32,0.00,,,-99.99,wx200d/1.3,2013-06-10 02:23:00,
2013-06-09 22:28:00,71.4,41.0,29.97,WSW,240,4.9,4.9,32,0.00,,,-99.99,wx200d/1.3,2013-06-10 02:28:00,
2013-06-09 22:33:00,71.2,41.0,29.97,West,276,0.0,0.0,32,0.00,,,-99.99,wx200d/1.3,2013-06-10 02:33:00,
2013-06-09 22:38:00,71.2,41.0,29.97,West,264,3.6,4.0,33,0.00,,,-99.99,wx200d/1.3,2013-06-10 02:38:00,
2013-06-09 22:43:00,70.9,43.0,29.97,WNW,287,4.5,4.5,34,0.00,,,-99.99,wx200d/1.3,2013-06-10 02:43:00,
2013-06-09 22:48:00,70.9,43.0,29.97,WSW,254,4.0,4.0,34,0.00,,,-99.99,wx200d/1.3,2013-06-10 02:48:00,
2013-06-09 22:53:00,70.9,43.0,29.97,West,275,4.9,4.9,34,0.00,,,-99.99,wx200d/1.3,2013-06-10 02:53:00,
2013-06-09 22:58:00,70.3,41.0,29.97,West,274,4.5,4.5,36,0.00,,,-99.99,wx200d/1.3,2013-06-10 02:58:00,
2013-06-09 23:03:00,70.3,43.0,29.97,West,263,4.5,4.5,37,0.00,,,-99.99,wx200d/1.3,2013-06-10 03:03:00,
2013-06-09 23:08:00,70.2,45.0,29.97,WNW,285,4.0,4.0,39,0.00,,,-99.99,wx200d/1.3,2013-06-10 03:08:00,
2013-06-09 23:13:00,70.0,45.0,29.97,West,260,4.0,4.9,40,0.00,,,-99.99,wx200d/1.3,2013-06-10 03:13:00,
2013-06-09 23:18:00,69.8,46.0,29.97,West,272,3.6,3.6,42,0.00,,,-99.99,wx200d/1.3,2013-06-10 03:18:00,
2013-06-09 23:23:00,69.6,46.0,29.97,West,259,4.9,4.9,42,0.00,,,-99.99,wx200d/1.3,2013-06-10 03:23:00,
2013-06-09 23:28:00,69.6,46.0,29.97,West,265,4.0,4.0,43,0.00,,,-99.99,wx200d/1.3,2013-06-10 03:28:00,
2013-06-09 23:33:00,69.4,46.0,29.97,WSW,242,4.5,4.5,43,0.00,,,-99.99,wx200d/1.3,2013-06-10 03:33:00,
2013-06-09 23:38:00,69.3,46.0,29.97,WSW,254,4.0,4.5,44,0.00,,,-99.99,wx200d/1.3,2013-06-10 03:38:00,
2013-06-09 23:43:00,69.1,48.0,29.97,NW,310,4.0,4.0,45,0.00,,,-99.99,wx200d/1.3,2013-06-10 03:43:00,
2013-06-09 23:48:00,68.9,48.0,29.97,WNW,287,3.1,3.6,45,0.00,,,-99.99,wx200d/1.3,2013-06-10 03:48:00,
2013-06-09 23:53:00,68.9,48.0,29.97,West,263,0.0,3.1,46,0.00,,,-99.99,wx200d/1.3,2013-06-10 03:53:00,
2013-06-09 23:58:00,68.7,46.0,29.97,West,269,3.1,3.6,46,0.00,,,-99.99,wx200d/1.3,2013-06-10 03:58:00,